Weather History for Glendale Luke AFB, AZ

Change the Weather History Date:

Tuesday, March 18, 2014

  Actual Average Record
Temperature  
Mean Temperature 67 °F -  
Max Temperature 77 °F 79 °F 94 °F (1921)
Min Temperature 57 °F 44 °F 34 °F (1977)
Cooling Degree Days 2    
Growing Degree Days 17 (Base 50)    
Moisture  
Dew Point 16 °F    
Average Humidity 15    
Maximum Humidity 33    
Minimum Humidity 6    
Precipitation  
Precipitation 0.00 in - - ()
Sea Level Pressure  
Sea Level Pressure 29.76 in    
Wind  
Wind Speed 9 mph (NNW)    
Max Wind Speed 24 mph    
Max Gust Speed 29 mph    
Visibility 10 miles    
Events      
Averages and records for this station are not official NWS values.
T = Trace of Precipitation, MM = Missing Value Source: NWS Daily Summary

Daily Weather History Graph

Daily Weather History Graph

Search for Another Location

Airport:

Trip Planner

Search our weather history database for the weather conditions in past years. The results will help you decide how hot, cold, wet, or windy it might be!

Date:

Astronomy

Mar. 18, 2014 Rise Set
Actual Time 6:35 AM MST 6:39 PM MST
Civil Twilight 6:11 AM MST 7:04 PM MST
Nautical Twilight 5:42 AM MST 7:33 PM MST
Astronomical Twilight 5:13 AM MST 8:02 PM MST
Moon 8:52 PM MST 7:34 AM MST
Length of Visible Light 12h 53m
Length of Day
12h 03m
Waning Gibbous, 96% of the Moon is Illuminated
Mar 18
Waning Gibbous
Mar 23
Last Quarter
Mar 30
New
Apr 7
First Quarter
Apr 15
Full

Hourly Weather History & Observations

Time (MST) Temp. Dew Point Humidity Pressure Visibility Wind Dir Wind Speed Gust Speed Precip Events Conditions
12:58 AM 69.4 °F 24.6 °F 19% 29.60 in 10.0 mi WNW 6.9 mph - N/A   Clear
1:58 AM 66.9 °F 25.5 °F 21% 29.61 in 10.0 mi NE 5.8 mph - N/A   Clear
2:58 AM 59.9 °F 30.7 °F 33% 29.64 in 10.0 mi East 8.1 mph - N/A   Clear
3:58 AM 59.0 °F 28.6 °F 31% 29.65 in 10.0 mi North 6.9 mph - N/A   Clear
4:58 AM 61.7 °F 22.3 °F 22% 29.66 in 10.0 mi North 9.2 mph - N/A   Clear
5:58 AM 59.0 °F 19.0 °F 21% 29.70 in 10.0 mi North 13.8 mph - N/A   Mostly Cloudy
6:58 AM 57.7 °F 17.8 °F 21% 29.74 in 10.0 mi NNE 1.2 mph - N/A   Mostly Cloudy
7:58 AM 62.6 °F 12.7 °F 14% 29.77 in 10.0 mi NNE 15.0 mph - N/A   Mostly Cloudy
8:58 AM 65.1 °F 10.0 °F 12% 29.80 in 10.0 mi NNE 24.2 mph 28.8 mph N/A   Mostly Cloudy
9:58 AM 67.6 °F 9.5 °F 10% 29.83 in 10.0 mi NNE 23.0 mph - N/A   Mostly Cloudy
10:58 AM 70.3 °F 10.6 °F 10% 29.83 in 10.0 mi NNE 15.0 mph - N/A   Mostly Cloudy
11:58 AM 73.4 °F 7.2 °F 8% 29.83 in 10.0 mi NNE 11.5 mph - N/A   Mostly Cloudy
12:58 PM 74.8 °F 4.3 °F 6% 29.81 in 10.0 mi NW 6.9 mph - N/A   Scattered Clouds
1:58 PM 76.6 °F 5.0 °F 6% 29.79 in 10.0 mi Variable 3.5 mph - N/A   Scattered Clouds
2:58 PM 76.6 °F 8.4 °F 7% 29.77 in 10.0 mi WSW 6.9 mph - N/A   Mostly Cloudy
3:58 PM 77.2 °F 9.0 °F 7% 29.76 in 10.0 mi SW 8.1 mph - N/A   Mostly Cloudy
4:58 PM 76.8 °F 8.6 °F 7% 29.76 in 10.0 mi SSE 8.1 mph - N/A   Mostly Cloudy
5:58 PM 77.2 °F 8.8 °F 7% 29.76 in 10.0 mi South 11.5 mph - N/A   Mostly Cloudy
6:58 PM 71.1 °F 20.3 °F 15% 29.78 in 10.0 mi SW 9.2 mph - N/A   Mostly Cloudy
7:58 PM 65.8 °F 22.5 °F 19% 29.81 in 10.0 mi West 6.9 mph - N/A   Mostly Cloudy
8:58 PM 64.2 °F 21.0 °F 19% 29.83 in 10.0 mi WNW 6.9 mph - N/A   Mostly Cloudy
9:58 PM 59.9 °F 20.5 °F 22% 29.84 in 10.0 mi NNW 5.8 mph - N/A   Mostly Cloudy
10:58 PM 60.4 °F 14.0 °F 16% 29.85 in 10.0 mi West 3.5 mph - N/A   Clear
11:58 PM 61.9 °F 11.7 °F 14% 29.86 in 10.0 mi SE 5.8 mph - N/A   Clear